Location: Unspecified
(0.0000°N, 0.0000°E)
Time: 11:03:07
(UTC+00:00)

Envisat - Pass Details

Date: 23 May 2020
Orbit: 764 x 766 km, 98.1° (Epoch: 30 May)

Event Time Altitude Azimuth Distance (km) Brightness Sun altitude
Rises 18:35:23 0° 187° (S) 3,231 6.1 -9.0°
Reaches altitude 10° 18:37:56 10° 197° (SSW) 2,302 5.4 -9.6°
Maximum altitude 18:42:21 31° 258° (WSW) 1,330 4.9 -10.6°
Drops below altitude 10° 18:46:45 10° 319° (NW) 2,293 6.5 -11.7°
Sets 18:49:17 0° 329° (NNW) 3,216 7.1 -12.2°
